Regional Weather Roundup
Issued by NWS

Home | Current Version | Previous Version | Graphics & Text | Print | Product List | Glossary On
Versions: 1 2 3 4 5 6 7 8 9 10 11 12 13 14 15 16 17 18 19 20 21 22 23 24 25 26 27 28 29 30 31 32 33 34 35 36 37 38 39 40 41 42 43 44 45 46 47 48 49 50
000
ASUS43 KIND 240559
RWRIN

WEATHER ROUNDUP FOR INDIANA
NATIONAL WEATHER SERVICE INDIANAPOLIS IN
200 AM EDT WED AUG 24 2016

NOTE: "FAIR" INDICATES FEW OR NO CLOUDS BELOW 12,000 FEET WITH NO
SIGNIFICANT WEATHER AND/OR OBSTRUCTIONS TO VISIBILITY.

* - STATION DOES NOT REPORT WEATHER SUCH AS PRECIPITATION OR FOG.

+ - STATION NOT QUALITY CONTROLLED BY THE NATIONAL WEATHER SERVICE.
    USE DATA WITH CAUTION...ESPECIALLY DEWPOINT AND RELATIVE
    HUMIDITY OBSERVATIONS.

INZ001>003-010>013-019-020-240700-
NORTHWEST INDIANA

CITY           SKY/WX    TMP DP  RH WIND       PRES   REMARKS
KNOX *+        CLEAR     64  46  52 S6        30.13S
MONTICELLO +   CLEAR     68  60  74 CALM      30.13S
6HR MIN TEMP:  68; 6HR MAX TEMP:  75;

RENSSELAER +   PTCLDY    66  63  88 S3        30.14R

$$

LMZ046-743>745-240700-
SOUTHERN LAKE MICHIGAN

STATION/POSITION TIME  TEMP    WIND        PRES    WAVE
                       AIR SEA DIR/SP/G            HT
                 (UTC) (F)     (DEG/KT/KT) (MB)    (FT)
BURNS HARBOR     0501   73     180/  9/ 15 1020.0S
MICHIGAN CITY    0500   71     160/ 10/ 13   N/A
5NW MICH CITY    0500   72 73  190/ 10/ 14   N/A     1

$$

INZ004-005-014>016-021>024-240700-
NORTH CENTRAL INDIANA

CITY           SKY/WX    TMP DP  RH WIND       PRES   REMARKS
GOSHEN         CLEAR     67  59  75 S7        30.15S
6HR MIN TEMP:  66; 6HR MAX TEMP:  75;

SOUTH BEND     CLEAR     67  61  81 S8        30.14S
6HR MIN TEMP:  67; 6HR MAX TEMP:  75;


$$

INZ006>009-017-018-025>027-240700-
NORTHEAST INDIANA

CITY           SKY/WX    TMP DP  RH WIND       PRES   REMARKS
ANGOLA *+      CLEAR     61  59  94 CALM      30.17S
FORT WAYNE     MOCLDY    65  60  84 SE9       30.17F
6HR MIN TEMP:  63; 6HR MAX TEMP:  75;


$$

INZ028-029-035-036-043>045-051>053-240700-
WEST CENTRAL INDIANA

CITY           SKY/WX    TMP DP  RH WIND       PRES   REMARKS
CRAWFORDSVL +  CLOUDY    66  66 100 S5        30.15S
6HR MIN TEMP:  65; 6HR MAX TEMP:  70;

GREENCASTLE +  CLOUDY    68  66  94 S5        30.16F
LAFAYETTE      CLEAR     68  64  87 S3        30.13R
6HR MIN TEMP:  68; 6HR MAX TEMP:  74;

TERRE HAUTE    PTCLDY    71  64  78 S6        30.14F
6HR MIN TEMP:  71; 6HR MAX TEMP:  76;


$$

INZ030>032-037>040-046>048-054>057-064-065-240700-
CENTRAL INDIANA

CITY           SKY/WX    TMP DP  RH WIND       PRES   REMARKS
INDIANAPOLIS   CLOUDY    70  63  78 S8        30.15S
6HR MIN TEMP:  70; 6HR MAX TEMP:  76;

-EAGLE CREEK   CLOUDY    72  62  71 S5        30.15F
6HR MIN TEMP:  72; 6HR MAX TEMP:  77;

KOKOMO *+      MOCLDY    64  57  77 S5        30.16S
6HR MIN TEMP:  64; 6HR MAX TEMP:  72;

MT COMFORT *+  CLOUDY    66  63  88 SE7       30.17F
SHELBYVILLE    PTCLDY    68  63  84 SE6       30.17F
6HR MIN TEMP:  67; 6HR MAX TEMP:  74;


$$

INZ033-034-041-042-049-050-058-059-240700-
EAST CENTRAL INDIANA

CITY           SKY/WX    TMP DP  RH WIND       PRES   REMARKS
MUNCIE         CLOUDY    69  61  75 S5        30.18F
6HR MIN TEMP:  66; 6HR MAX TEMP:  77;


$$

INZ060-061-067>069-081>083-085>088-240700-
SOUTHWEST INDIANA

CITY           SKY/WX    TMP DP  RH WIND       PRES   REMARKS
EVANSVILLE     CLOUDY    74  66  76 SE5       30.16S
6HR MIN TEMP:  74; 6HR MAX TEMP:  79;

HUNTINGBURG *+ CLOUDY    72  64  78 SE3       30.17F
6HR MIN TEMP:  70; 6HR MAX TEMP:  75;


$$

INZ062-063-066-070>080-084-089>092-240700-
SOUTH CENTRAL AND SOUTHEAST INDIANA

CITY           SKY/WX    TMP DP  RH WIND       PRES   REMARKS
BLOOMINGTON    CLOUDY    70  64  81 S3        30.17F
6HR MIN TEMP:  68; 6HR MAX TEMP:  73;

MADISON *+     PTCLDY    68  64  88 E5        30.21F

$$





USA.gov is the U.S. government's official web portal to all federal, state and local government web resources and services.